Kimball, NE

4:28 AM MDT on May 25, 2017 (GMT -0600)
Kimball Municipal-Arraj

Weather History for KIBM - November, 2012

Change the Weather History Date:

Saturday, November 3, 2012

  Actual Average (KSNY) Record (KSNY)
Temperature  
Mean Temperature 44 °F -  
Max Temperature 63 °F 52 °F 76 °F (2015)
Min Temperature 26 °F 25 °F -3 °F (1991)
Degree Days  
Heating Degree Days 20    
Moisture  
Dew Point 25 °F    
Average Humidity 59    
Maximum Humidity 90    
Minimum Humidity 16    
Precipitation  
Precipitation 0.00 in - - ()
Sea Level Pressure  
Sea Level Pressure 30.15 in    
Wind  
Wind Speed 6 mph (West)    
Max Wind Speed 20 mph    
Max Gust Speed 24 mph    
Visibility 10 miles    
Events      
Averages and records for this station are not official NWS values.
T = Trace of Precipitation, MM = Missing Value Source: NWS Daily Summary

Daily Weather History Graph

Daily Weather History Graph

Search for Another Location

Airport or City:

Trip Planner

Search our weather history database for the weather conditions in past years. The results will help you decide how hot, cold, wet, or windy it might be!

Date:

Astronomy

Nov. 03, 2012 Rise Set
Actual Time 8:28 AM CDT 6:47 PM CDT
Civil Twilight 8:00 AM CDT 7:15 PM CDT
Nautical Twilight 7:27 AM CDT 7:48 PM CDT
Astronomical Twilight 6:55 AM CDT 8:20 PM CDT
Moon 10:29 PM CDT (11/3) 12:35 PM CDT (11/3)
Length of Visible Light 11h 15m
Length of Day
10h 18m
Waning Gibbous, 80% of the Moon is Illuminated
Nov 3
Waning Gibbous
Nov 6
Last Quarter
Nov 13
New
Nov 20
First Quarter
Nov 28
Full

Hourly Weather History & Observations

Time (CDT) Temp. Windchill Dew Point Humidity Pressure Visibility Wind Dir Wind Speed Gust Speed Precip Events Conditions
12:15 AM 32.0 °F 27.5 °F 25.7 °F 78% 30.16 in 10.0 mi West 4.6 mph - N/A   Clear
12:35 AM 30.9 °F 25.2 °F 25.3 °F 80% 30.17 in 10.0 mi West 5.8 mph - N/A   Clear
12:55 AM 31.3 °F 25.6 °F 25.5 °F 79% 30.17 in 10.0 mi NW 5.8 mph - N/A   Clear
1:15 AM 29.7 °F 22.8 °F 25.5 °F 85% 30.17 in 10.0 mi WNW 6.9 mph - N/A   Clear
1:35 AM 29.8 °F 21.5 °F 25.5 °F 84% 30.17 in 10.0 mi WNW 9.2 mph - N/A   Clear
1:55 AM 30.0 °F - 25.7 °F 84% 30.17 in 10.0 mi Calm Calm - N/A   Clear
2:15 AM 31.5 °F 24.9 °F 26.6 °F 82% 30.17 in 10.0 mi WNW 6.9 mph - N/A   Clear
2:35 AM 30.0 °F 22.4 °F 25.5 °F 83% 30.17 in 10.0 mi WNW 8.1 mph - N/A   Clear
2:55 AM 30.2 °F 23.4 °F 25.7 °F 83% 30.17 in 10.0 mi WNW 6.9 mph - N/A   Clear
3:15 AM 30.0 °F 25.2 °F 25.7 °F 84% 30.17 in 10.0 mi WNW 4.6 mph - N/A   Clear
3:35 AM 29.8 °F 23.0 °F 25.3 °F 83% 30.17 in 10.0 mi WNW 6.9 mph - N/A   Clear
3:55 AM 28.8 °F 22.6 °F 24.6 °F 84% 30.17 in 10.0 mi WNW 5.8 mph - N/A   Clear
4:15 AM 29.3 °F 22.3 °F 25.2 °F 85% 30.17 in 10.0 mi WNW 6.9 mph - N/A   Clear
4:35 AM 30.2 °F - 25.7 °F 83% 30.16 in 10.0 mi Calm Calm - N/A   Clear
4:55 AM 29.8 °F - 25.3 °F 83% 30.16 in 10.0 mi Calm Calm - N/A   Clear
5:15 AM 29.7 °F 26.1 °F 25.3 °F 84% 30.16 in 10.0 mi West 3.5 mph - N/A   Clear
5:35 AM 27.7 °F 19.6 °F 24.1 °F 86% 30.16 in 10.0 mi WSW 8.1 mph - N/A   Clear
5:55 AM 27.5 °F 23.6 °F 24.1 °F 87% 30.17 in 10.0 mi West 3.5 mph - N/A   Clear
6:15 AM 28.0 °F 21.7 °F 24.1 °F 85% 30.16 in 10.0 mi West 5.8 mph - N/A   Clear
6:35 AM 28.2 °F 24.4 °F 23.9 °F 84% 30.16 in 10.0 mi WNW 3.5 mph - N/A   Clear
6:55 AM 27.7 °F 21.3 °F 24.1 °F 86% 30.16 in 10.0 mi West 5.8 mph - N/A   Clear
7:15 AM 27.3 °F 22.0 °F 23.9 °F 87% 30.16 in 10.0 mi WSW 4.6 mph - N/A   Clear
7:35 AM 27.1 °F 21.8 °F 23.9 °F 88% 30.16 in 10.0 mi West 4.6 mph - N/A   Clear
7:55 AM 26.2 °F 18.6 °F 23.5 °F 90% 30.16 in 10.0 mi WNW 6.9 mph - N/A   Clear
8:15 AM 27.7 °F 23.8 °F 24.4 °F 88% 30.16 in 10.0 mi West 3.5 mph - N/A   Clear
8:35 AM 27.0 °F 20.5 °F 23.7 °F 88% 30.16 in 10.0 mi WSW 5.8 mph - N/A   Clear
8:55 AM 27.5 °F 22.2 °F 24.3 °F 88% 30.17 in 10.0 mi West 4.6 mph - N/A   Clear
9:15 AM 28.8 °F 23.7 °F 25.5 °F 88% 30.17 in 10.0 mi West 4.6 mph - N/A   Clear
9:35 AM 33.6 °F 29.4 °F 29.1 °F 84% 30.17 in 10.0 mi West 4.6 mph - N/A   Clear
9:55 AM 36.3 °F 33.7 °F 30.7 °F 80% 30.17 in 10.0 mi WSW 3.5 mph - N/A   Clear
10:15 AM 40.3 °F 37.1 °F 32.0 °F 72% 30.17 in 10.0 mi WSW 4.6 mph - N/A   Clear
10:35 AM 43.3 °F 40.7 °F 33.1 °F 67% 30.17 in 10.0 mi SW 4.6 mph - N/A   Clear
10:55 AM 47.3 °F - 32.4 °F 56% 30.17 in 10.0 mi WSW 3.5 mph - N/A   Clear
11:15 AM 52.9 °F - 28.8 °F 40% 30.17 in 10.0 mi SSW 16.1 mph - N/A   Clear
11:35 AM 54.3 °F - 26.8 °F 35% 30.17 in 10.0 mi South 19.6 mph 24.2 mph N/A   Clear
11:55 AM 55.0 °F - 25.3 °F 32% 30.16 in 10.0 mi South 17.3 mph 24.2 mph N/A   Clear
12:15 PM 55.0 °F - 25.2 °F 32% 30.16 in 10.0 mi South 15.0 mph - N/A   Clear
12:35 PM 55.4 °F - 26.6 °F 33% 30.16 in 10.0 mi South 12.7 mph - N/A   Clear
12:55 PM 56.3 °F - 27.3 °F 33% 30.16 in 10.0 mi SSW 10.4 mph 17.3 mph N/A   Clear
1:15 PM 57.9 °F - 27.3 °F 31% 30.15 in 10.0 mi NW 11.5 mph - N/A   Clear
1:35 PM 57.7 °F - 28.2 °F 32% 30.14 in 10.0 mi WNW 10.4 mph - N/A   Clear
1:55 PM 58.6 °F - 25.7 °F 28% 30.13 in 10.0 mi WNW 9.2 mph - N/A   Clear
2:15 PM 59.2 °F - 24.4 °F 26% 30.13 in 10.0 mi NW 8.1 mph - N/A   Clear
2:35 PM 59.7 °F - 23.5 °F 25% 30.12 in 10.0 mi WNW 4.6 mph - N/A   Clear
2:55 PM 59.5 °F - 20.1 °F 22% 30.12 in 10.0 mi West 3.5 mph 9.2 mph N/A   Clear
3:15 PM 60.4 °F - 19.0 °F 20% 30.12 in 10.0 mi WNW 12.7 mph 16.1 mph N/A   Clear
3:35 PM 61.2 °F - 18.9 °F 20% 30.11 in 10.0 mi WNW 8.1 mph 17.3 mph N/A   Clear
3:55 PM 60.8 °F - 18.7 °F 20% 30.10 in 10.0 mi Calm Calm - N/A   Clear
4:15 PM 61.7 °F - 18.1 °F 19% 30.10 in 10.0 mi NW 5.8 mph - N/A   Clear
4:35 PM 63.5 °F - 18.0 °F 17% 30.10 in 10.0 mi West 12.7 mph 16.1 mph N/A   Clear
4:55 PM 62.8 °F - 15.4 °F 16% 30.10 in 10.0 mi NW 9.2 mph 17.3 mph N/A   Clear
5:15 PM 58.3 °F - 18.0 °F 21% 30.10 in 10.0 mi NNW 11.5 mph - N/A   Clear
5:35 PM 58.1 °F - 22.6 °F 25% 30.11 in 10.0 mi North 10.4 mph - N/A   Clear
5:55 PM 54.9 °F - 23.5 °F 30% 30.11 in 10.0 mi NNE 5.8 mph - N/A   Clear
6:15 PM 54.7 °F - 23.0 °F 29% 30.11 in 10.0 mi North 5.8 mph - N/A   Clear
6:35 PM 52.9 °F - 23.5 °F 32% 30.11 in 10.0 mi North 6.9 mph - N/A   Clear
6:55 PM 50.0 °F - 23.9 °F 36% 30.11 in 10.0 mi North 6.9 mph - N/A   Clear
7:15 PM 44.8 °F 43.3 °F 23.2 °F 43% 30.12 in 10.0 mi ENE 3.5 mph - N/A   Clear
7:35 PM 46.8 °F - 23.9 °F 41% 30.13 in 10.0 mi East 3.5 mph - N/A   Clear
7:55 PM 43.0 °F - 23.9 °F 47% 30.13 in 10.0 mi Calm Calm - N/A   Clear
8:15 PM 43.9 °F - 24.1 °F 46% 30.13 in 10.0 mi Calm Calm - N/A   Clear
8:35 PM 39.4 °F 37.2 °F 24.1 °F 54% 30.14 in 10.0 mi SSW 3.5 mph - N/A   Clear
8:55 PM 40.6 °F - 24.6 °F 53% 30.15 in 10.0 mi Calm Calm - N/A   Clear
9:15 PM 38.3 °F - 23.9 °F 56% 30.14 in 10.0 mi Calm Calm - N/A   Clear
9:35 PM 38.8 °F - 24.4 °F 56% 30.15 in 10.0 mi Calm Calm - N/A   Clear
9:55 PM 34.9 °F - 23.5 °F 63% 30.15 in 10.0 mi Calm Calm - N/A   Clear
10:15 PM 34.7 °F 29.6 °F 23.7 °F 64% 30.16 in 10.0 mi WSW 5.8 mph - N/A   Clear
10:35 PM 34.5 °F 31.6 °F 23.7 °F 65% 30.15 in 10.0 mi WSW 3.5 mph - N/A   Clear
10:55 PM 33.1 °F 26.9 °F 23.5 °F 68% 30.15 in 10.0 mi West 6.9 mph - N/A   Clear
11:15 PM 34.2 °F 30.0 °F 24.3 °F 67% 30.15 in 10.0 mi West 4.6 mph - N/A   Clear
11:35 PM 32.9 °F 26.7 °F 24.1 °F 70% 30.15 in 10.0 mi West 6.9 mph - N/A   Clear
11:55 PM 34.0 °F 28.0 °F 24.1 °F 67% 30.14 in 10.0 mi West 6.9 mph - N/A   Clear